"SCET";"TARGET";"ELECTRON_DENSITY";"ERROR_FLAG";"ELECTRON_DENSITY_ERROR";"FREQ_FCE";"MEASURED_VALUE";"MEASURED_ITEM";"FREQ_PLASMA";"FREQ_UPPER_HYBRID";"FREQ_R_EQUALS_ZERO";"FREQ_L_EQUALS_ZERO";"ORBIT_NUMBER";"SATURN_RADIUS";"SATURN_IAU_LONGITUDE";"SATURN_SLS4_S_LONGITUDE";"SATURN_SLS4_N_LONGITUDE";"SATURN_SLS5_S_LONGITUDE";"SATURN_SLS5_N_LONGITUDE";"SATURN_LOCAL_TIME";"SATURN_KRONOGRAPHIC_LATITUDE";"SATURN_MAGNETIC_LATITUDE";"SATURN_L";"SATURN_L_OFFSET";"SATURN_SOLAR_EQUATORIAL_X";"SATURN_SOLAR_EQUATORIAL_Y";"SATURN_SOLAR_EQUATORIAL_Z";"SATURN_ALTITUDE";"ENCELADUS_ENCOUNTER_NUMBER";"ENCELADUS_RADIUS";"ENCELADUS_COROTATIONAL_X";"ENCELADUS_COROTATIONAL_Y";"ENCELADUS_COROTATIONAL_Z";"ENCELADUS_TRUE_ANOMALY";"ENCELADUS_PERIAPSIS_TIME";"JUPITER_RADIUS";"JUPITER_SYSTEMIII_LONGITUDE";"JUPITER_MAGNETIC_LATITUDE";"JUPITER_MAGNETIC_LOCAL_TIME";"JUPITER_L";"IO_PHASE";"EARTH_RADIUS";"EARTH_MAGNETIC_LATITUDE";"EARTH_LOCAL_TIME";"EARTH_L"
"[UTC]";"[0=Saturn, 1=Enceladus, 2=Jupiter, 3=Earth]";"[cm-3]";"[0=automated, 1=manual]";"[normalized density error]";"[Hz]";"[Hz]";"[0=upper hybrid frequency, 1=plasma frequency cutoff]";"[Hz]";"[Hz]";"[Hz]";"[Hz}";"[0, A, B, C, 3, 4, ... , 292, 293]";"[Rs where 1Rs=60268km]";"[degrees]";"[degrees]";"[degrees]";"[degrees]";"[degrees]";"[hours]";"[degrees]";"[degrees where offset=2293km north]";"[Rs where 1Rs=60268km]";"[Rs where 1Rs=60268km and offset=2293km north]";"[Rs where 1Rs=60268km]";"[Rs where 1Rs=60268km]";"[Rs where 1Rs=60268km]";"[km where ellipsoid a,b=60268km and c=54364km]";"[E0, E1, E2, ... , E21, E22]";"[Renc where 1Renc=252.1km]";"[Renc where 1Renc=252.1km]";"[Renc where 1Renc=252.1km]";"[Renc where 1Renc=252.1km]";"[degrees]";"[UTC]";"[Rj where 1Rj=71492km]";"[degrees]";"[degrees using JRM09 model]";"[hours using JRM09 model]";"[Rj where 1Rj=71492km]";"[degrees]";"[Re where 1Re=6378.1366km]";"[degrees]";"[hours]";"[Re where 1Re=6378.1366km]"
2006-11-09T00:22:50.988Z;0;2.7060e+00;0;     0.184;  6796.020;  16260.956; 0;  14772.705;  16260.956;  18556.482;  11760.462; 32;   4.673; 347.193; 121.154;  42.645; 133.015;  55.843;  13.039; -22.356; -22.786;   5.463;   4.683;   4.163;   1.161;  -1.777;;;;;;;;;;;;;;;;;;
2006-11-09T00:22:58.988Z;0;2.5920e+00;0;     0.158;  6796.020;  15975.857; 0;  14458.289;  15975.857;  18250.236;  11454.216; 32;   4.673; 347.251; 121.212;  42.704; 133.072;  55.901;  13.040; -22.337; -22.767;   5.461;   4.683;   4.163;   1.162;  -1.776;;;;;;;;;;;;;;;;;;
2006-11-09T00:23:06.987Z;0;2.6510e+00;0;     0.162;  6796.020;  16122.440; 0;  14620.096;  16122.440;  18407.795;  11611.775; 32;   4.673; 347.310; 121.269;  42.763; 133.129;  55.960;  13.041; -22.317; -22.747;   5.460;   4.683;   4.163;   1.164;  -1.774;;;;;;;;;;;;;;;;;;
2006-11-09T00:23:14.987Z;0;2.7550e+00;0;     0.170;  6796.020;  16381.538; 0;  14905.331;  16381.538;  18685.762;  11889.742; 32;   4.673; 347.368; 121.326;  42.822; 133.186;  56.018;  13.042; -22.298; -22.728;   5.458;   4.683;   4.163;   1.165;  -1.773;;;;;;;;;;;;;;;;;;
2006-11-09T00:23:22.987Z;0;2.6160e+00;0;     0.152;  6796.020;  16034.604; 0;  14523.176;  16034.604;  18313.408;  11517.388; 32;   4.673; 347.427; 121.384;  42.881; 133.243;  56.076;  13.043; -22.278; -22.709;   5.457;   4.683;   4.164;   1.167;  -1.771;;;;;;;;;;;;;;;;;;
2006-11-09T00:23:30.987Z;0;2.6740e+00;0;     0.179;  6796.020;  16180.253; 0;  14683.824;  16180.253;  18469.877;  11673.856; 32;   4.673; 347.485; 121.441;  42.940; 133.299;  56.135;  13.044; -22.259; -22.689;   5.456;   4.683;   4.164;   1.168;  -1.770;;;;;;;;;;;;;;;;;;
2006-11-09T00:23:38.987Z;0;2.5860e+00;0;     0.156;  6796.020;  15960.147; 0;  14440.929;  15960.147;  18233.336;  11437.315; 32;   4.673; 347.544; 121.498;  42.999; 133.356;  56.193;  13.046; -22.239; -22.670;   5.454;   4.683;   4.164;   1.169;  -1.768;;;;;;;;;;;;;;;;;;
2006-11-09T00:23:46.987Z;0;2.6920e+00;0;     0.176;  6796.020;  16226.162; 0;  14734.396;  16226.162;  18519.152;  11723.132; 32;   4.673; 347.602; 121.556;  43.058; 133.413;  56.251;  13.047; -22.220; -22.650;   5.453;   4.683;   4.165;   1.171;  -1.767;;;;;;;;;;;;;;;;;;
2006-11-09T00:23:54.987Z;0;2.7280e+00;0;     0.174;  6796.020;  16315.501; 0;  14832.724;  16315.501;  18614.979;  11818.959; 32;   4.673; 347.661; 121.613;  43.117; 133.470;  56.309;  13.048; -22.201; -22.631;   5.451;   4.683;   4.165;   1.172;  -1.766;;;;;;;;;;;;;;;;;;
2006-11-09T00:24:02.987Z;0;2.6100e+00;0;     0.161;  6779.724;  16012.735; 0;  14506.655;  16012.735;  18287.318;  11507.595; 32;   4.673; 347.719; 121.671;  43.176; 133.527;  56.368;  13.049; -22.181; -22.612;   5.450;   4.683;   4.165;   1.174;  -1.764;;;;;;;;;;;;;;;;;;
2006-11-09T00:24:10.987Z;0;2.6250e+00;0;     0.147;  6779.724;  16050.684; 0;  14548.532;  16050.684;  18328.100;  11548.376; 32;   4.673; 347.778; 121.728;  43.235; 133.584;  56.426;  13.050; -22.162; -22.592;   5.448;   4.683;   4.165;   1.175;  -1.763;;;;;;;;;;;;;;;;;;
2006-11-09T00:24:18.987Z;0;2.6330e+00;0;     0.163;  6779.724;  16072.254; 0;  14572.326;  16072.254;  18351.273;  11571.550; 32;   4.673; 347.836; 121.785;  43.294; 133.641;  56.484;  13.051; -22.142; -22.573;   5.447;   4.683;   4.166;   1.176;  -1.761;;;;;;;;;;;;;;;;;;
2006-11-09T00:24:26.987Z;0;2.6950e+00;0;     0.183;  6779.724;  16225.081; 0;  14740.712;  16225.081;  18515.330;  11735.605; 32;   4.673; 347.895; 121.843;  43.353; 133.698;  56.542;  13.052; -22.123; -22.554;   5.446;   4.683;   4.166;   1.178;  -1.760;;;;;;;;;;;;;;;;;;
2006-11-09T00:24:34.987Z;0;2.5980e+00;0;     0.153;  6779.724;  15983.022; 0;  14473.851;  15983.022;  18255.377;  11475.652; 32;   4.673; 347.953; 121.900;  43.412; 133.755;  56.600;  13.053; -22.103; -22.534;   5.444;   4.683;   4.166;   1.179;  -1.758;;;;;;;;;;;;;;;;;;
2006-11-09T00:24:42.987Z;0;2.5690e+00;0;     0.153;  6779.724;  15909.301; 0;  14392.400;  15909.301;  18176.084;  11396.360; 32;   4.673; 348.012; 121.957;  43.471; 133.811;  56.659;  13.054; -22.084; -22.515;   5.443;   4.683;   4.167;   1.180;  -1.757;;;;;;;;;;;;;;;;;;
2006-11-09T00:24:50.987Z;0;2.6120e+00;0;     0.160;  6779.724;  16017.448; 0;  14511.857;  16017.448;  18292.383;  11512.660; 32;   4.673; 348.070; 122.015;  43.530; 133.868;  56.717;  13.056; -22.064; -22.495;   5.441;   4.683;   4.167;   1.182;  -1.755;;;;;;;;;;;;;;;;;;
2006-11-09T00:24:58.987Z;0;2.5870e+00;0;     0.158;  6779.724;  15956.380; 0;  14444.425;  15956.380;  18226.727;  11447.003; 32;   4.674; 348.129; 122.072;  43.589; 133.925;  56.775;  13.057; -22.045; -22.476;   5.440;   4.683;   4.167;   1.183;  -1.754;;;;;;;;;;;;;;;;;;
2006-11-09T00:25:06.987Z;0;2.7290e+00;0;     0.166;  6763.400;  16303.757; 0;  14834.720;  16303.757;  18596.982;  11833.582; 32;   4.674; 348.187; 122.130;  43.648; 133.982;  56.833;  13.058; -22.026; -22.457;   5.438;   4.683;   4.168;   1.185;  -1.753;;;;;;;;;;;;;;;;;;
2006-11-09T00:25:14.987Z;0;2.5770e+00;0;     0.161;  6763.400;  15924.605; 0;  14416.985;  15924.605;  18189.988;  11426.587; 32;   4.674; 348.246; 122.187;  43.707; 134.039;  56.891;  13.059; -22.006; -22.437;   5.437;   4.683;   4.168;   1.186;  -1.751;;;;;;;;;;;;;;;;;;
2006-11-09T00:25:22.987Z;0;2.6640e+00;0;     0.182;  6763.400;  16141.133; 0;  14655.804;  16141.133;  18422.594;  11659.193; 32;   4.674; 348.304; 122.244;  43.766; 134.095;  56.949;  13.060; -21.987; -22.418;   5.436;   4.684;   4.168;   1.187;  -1.750;;;;;;;;;;;;;;;;;;
2006-11-09T00:25:30.987Z;0;2.6540e+00;0;     0.179;  6763.400;  16118.129; 0;  14630.465;  16118.129;  18397.904;  11634.504; 32;   4.674; 348.363; 122.302;  43.825; 134.152;  57.007;  13.061; -21.967; -22.398;   5.434;   4.684;   4.168;   1.189;  -1.748;;;;;;;;;;;;;;;;;;
2006-11-09T00:25:38.987Z;0;2.5550e+00;0;     0.158;  6763.400;  15867.294; 0;  14353.656;  15867.294;  18128.338;  11364.938; 32;   4.674; 348.421; 122.359;  43.885; 134.209;  57.065;  13.062; -21.948; -22.379;   5.433;   4.684;   4.169;   1.190;  -1.747;;;;;;;;;;;;;;;;;;
2006-11-09T00:25:46.986Z;0;2.5560e+00;0;     0.174;  6763.400;  15870.780; 0;  14357.510;  15870.780;  18132.090;  11368.689; 32;   4.674; 348.480; 122.417;  43.944; 134.266;  57.123;  13.063; -21.928; -22.360;   5.431;   4.684;   4.169;   1.192;  -1.745;;;;;;;;;;;;;;;;;;
2006-11-09T00:25:54.986Z;0;2.6880e+00;0;     0.158;  6763.400;  16201.904; 0;  14722.708;  16201.904;  18487.793;  11724.392; 32;   4.674; 348.539; 122.474;  44.003; 134.322;  57.182;  13.064; -21.909; -22.340;   5.430;   4.684;   4.169;   1.193;  -1.744;;;;;;;;;;;;;;;;;;
2006-11-09T00:26:02.986Z;0;2.6400e+00;0;     0.188;  6746.964;  16076.204; 0;  14591.875;  16076.204;  18350.236;  11603.273; 32;   4.674; 348.597; 122.532;  44.062; 134.379;  57.240;  13.065; -21.889; -22.321;   5.429;   4.684;   4.170;   1.194;  -1.742;;;;;;;;;;;;;;;;;;
2006-11-09T00:26:10.986Z;0;2.5190e+00;0;     0.162;  6746.964;  15768.744; 0;  14252.431;  15768.744;  18019.715;  11272.751; 32;   4.674; 348.656; 122.589;  44.121; 134.436;  57.298;  13.067; -21.870; -22.301;   5.427;   4.684;   4.170;   1.196;  -1.741;;;;;;;;;;;;;;;;;;
2006-11-09T00:26:18.986Z;0;2.6830e+00;0;     0.166;  6746.964;  16182.682; 0;  14709.102;  16182.682;  18464.475;  11717.510; 32;   4.674; 348.714; 122.647;  44.180; 134.492;  57.356;  13.068; -21.851; -22.282;   5.426;   4.684;   4.170;   1.197;  -1.740;;;;;;;;;;;;;;;;;;
2006-11-09T00:26:26.986Z;0;2.5670e+00;0;     0.167;  6746.964;  15891.645; 0;  14388.288;  15891.645;  18151.953;  11404.989; 32;   4.674; 348.773; 122.704;  44.239; 134.549;  57.414;  13.069; -21.831; -22.263;   5.424;   4.684;   4.170;   1.198;  -1.738;;;;;;;;;;;;;;;;;;
2006-11-09T00:26:34.986Z;0;2.6470e+00;0;     0.170;  6746.964;  16092.857; 0;  14610.221;  16092.857;  18368.111;  11621.147; 32;   4.674; 348.831; 122.761;  44.298; 134.606;  57.472;  13.070; -21.812; -22.243;   5.423;   4.684;   4.171;   1.200;  -1.737;;;;;;;;;;;;;;;;;;
2006-11-09T00:26:42.986Z;0;2.6500e+00;0;     0.167;  6746.964;  16101.101; 0;  14619.300;  16101.101;  18376.959;  11629.994; 32;   4.674; 348.890; 122.819;  44.357; 134.662;  57.530;  13.071; -21.792; -22.224;   5.422;   4.684;   4.171;   1.201;  -1.735;;;;;;;;;;;;;;;;;;
2006-11-09T00:26:50.986Z;0;2.6050e+00;0;     0.152;  6746.964;  15986.538; 0;  14493.028;  15986.538;  18253.947;  11506.983; 32;   4.675; 348.949; 122.876;  44.416; 134.719;  57.588;  13.072; -21.773; -22.204;   5.420;   4.684;   4.171;   1.203;  -1.734;;;;;;;;;;;;;;;;;;
2006-11-09T00:26:58.986Z;0;2.6770e+00;0;     0.167;  6746.964;  16166.964; 0;  14691.808;  16166.964;  18447.617;  11700.654; 32;   4.675; 349.007; 122.934;  44.475; 134.776;  57.645;  13.073; -21.753; -22.185;   5.419;   4.684;   4.172;   1.204;  -1.732;;;;;;;;;;;;;;;;;;
2006-11-09T00:27:06.986Z;0;2.6740e+00;0;     0.159;  6730.500;  16153.652; 0;  14684.715;  16153.652;  18430.633;  11700.133; 32;   4.675; 349.066; 122.991;  44.535; 134.832;  57.703;  13.074; -21.734; -22.166;   5.418;   4.684;   4.172;   1.205;  -1.731;;;;;;;;;;;;;;;;;;
2006-11-09T00:27:14.986Z;0;2.6950e+00;0;     0.153;  6730.500;  16205.207; 0;  14741.408;  16205.207;  18485.898;  11755.398; 32;   4.675; 349.124; 123.049;  44.594; 134.889;  57.761;  13.075; -21.714; -22.146;   5.416;   4.684;   4.172;   1.207;  -1.729;;;;;;;;;;;;;;;;;;
2006-11-09T00:27:22.986Z;0;2.6810e+00;0;     0.151;  6730.500;  16171.109; 0;  14703.916;  16171.109;  18449.350;  11718.850; 32;   4.675; 349.183; 123.106;  44.653; 134.945;  57.819;  13.076; -21.695; -22.127;   5.415;   4.684;   4.172;   1.208;  -1.728;;;;;;;;;;;;;;;;;;
2006-11-09T00:27:30.986Z;0;2.6950e+00;0;     0.166;  6730.500;  16206.262; 0;  14742.567;  16206.262;  18487.029;  11756.529; 32;   4.675; 349.242; 123.164;  44.712; 135.002;  57.877;  13.078; -21.675; -22.107;   5.413;   4.684;   4.173;   1.210;  -1.727;;;;;;;;;;;;;;;;;;
2006-11-09T00:27:46.986Z;0;2.6150e+00;0;     0.147;  6730.500;  16004.724; 0;  14520.729;  16004.724;  18270.834;  11540.335; 32;   4.675; 349.359; 123.279;  44.830; 135.115;  57.993;  13.080; -21.637; -22.069;   5.411;   4.685;   4.173;   1.212;  -1.724;;;;;;;;;;;;;;;;;;
2006-11-09T00:27:54.986Z;0;2.7480e+00;0;     0.158;  6730.500;  16335.912; 0;  14884.972;  16335.912;  18625.896;  11895.396; 32;   4.675; 349.418; 123.336;  44.889; 135.172;  58.051;  13.081; -21.617; -22.049;   5.409;   4.685;   4.174;   1.214;  -1.722;;;;;;;;;;;;;;;;;;
2006-11-09T00:28:02.986Z;0;2.7110e+00;0;     0.150;  6713.980;  16238.501; 0;  14785.513;  16238.501;  18518.809;  11804.829; 32;   4.675; 349.476; 123.394;  44.949; 135.228;  58.109;  13.082; -21.598; -22.030;   5.408;   4.685;   4.174;   1.215;  -1.721;;;;;;;;;;;;;;;;;;
2006-11-09T00:28:10.986Z;0;2.6010e+00;0;     0.139;  6713.980;  15962.106; 0;  14481.413;  15962.106;  18222.410;  11508.430; 32;   4.675; 349.535; 123.451;  45.008; 135.285;  58.166;  13.083; -21.578; -22.010;   5.407;   4.685;   4.174;   1.216;  -1.719;;;;;;;;;;;;;;;;;;
2006-11-09T00:28:18.985Z;0;2.7740e+00;0;     0.136;  6713.980;  16395.350; 0;  14957.605;  16395.350;  18686.678;  11972.698; 32;   4.675; 349.593; 123.509;  45.067; 135.341;  58.224;  13.084; -21.559; -21.991;   5.405;   4.685;   4.174;   1.218;  -1.718;;;;;;;;;;;;;;;;;;
2006-11-09T00:28:26.985Z;0;2.6910e+00;0;     0.163;  6713.980;  16187.978; 0;  14730.007;  16187.978;  18464.686;  11750.706; 32;   4.675; 349.652; 123.566;  45.126; 135.398;  58.282;  13.085; -21.539; -21.971;   5.404;   4.685;   4.175;   1.219;  -1.716;;;;;;;;;;;;;;;;;;
2006-11-09T00:28:34.985Z;0;2.6040e+00;0;     0.183;  6713.980;  15969.797; 0;  14489.889;  15969.797;  18230.666;  11516.687; 32;   4.676; 349.711; 123.624;  45.185; 135.454;  58.340;  13.086; -21.520; -21.952;   5.402;   4.685;   4.175;   1.221;  -1.715;;;;;;;;;;;;;;;;;;
2006-11-09T00:28:42.985Z;0;2.5450e+00;0;     0.228;  6713.980;  15821.886; 0;  14326.707;  15821.886;  18071.742;  11357.762; 32;   4.676; 349.769; 123.681;  45.244; 135.511;  58.398;  13.087; -21.500; -21.933;   5.401;   4.685;   4.175;   1.222;  -1.713;;;;;;;;;;;;;;;;;;
2006-11-09T00:28:50.985Z;0;2.5580e+00;0;     0.236;  6713.980;  15853.071; 0;  14361.140;  15853.071;  18105.270;  11391.289; 32;   4.676; 349.828; 123.739;  45.304; 135.567;  58.455;  13.088; -21.481; -21.913;   5.400;   4.685;   4.176;   1.223;  -1.712;;;;;;;;;;;;;;;;;;
2006-11-09T00:28:58.985Z;0;2.5190e+00;0;     0.264;  6713.980;  15754.539; 0;  14252.297;  15754.539;  17999.305;  11285.324; 32;   4.676; 349.887; 123.797;  45.363; 135.623;  58.513;  13.090; -21.461; -21.894;   5.398;   4.685;   4.176;   1.225;  -1.711;;;;;;;;;;;;;;;;;;
2006-11-09T00:29:06.985Z;0;2.7040e+00;0;     0.161;  6697.404;  16214.639; 0;  14766.831;  16214.639;  18490.469;  11793.064; 32;   4.676; 349.945; 123.854;  45.422; 135.680;  58.571;  13.091; -21.442; -21.874;   5.397;   4.685;   4.176;   1.226;  -1.709;;;;;;;;;;;;;;;;;;
2006-11-09T00:29:14.985Z;0;2.7720e+00;0;     0.132;  6697.404;  16381.825; 0;  14950.217;  16381.825;  18669.367;  11971.963; 32;   4.676; 350.004; 123.912;  45.481; 135.736;  58.629;  13.092; -21.422; -21.855;   5.396;   4.685;   4.176;   1.227;  -1.708;;;;;;;;;;;;;;;;;;
2006-11-09T00:29:22.985Z;0;2.7810e+00;0;     0.125;  6697.404;  16404.867; 0;  14975.462;  16404.867;  18694.002;  11996.599; 32;   4.676; 350.063; 123.969;  45.540; 135.793;  58.686;  13.093; -21.403; -21.836;   5.394;   4.685;   4.177;   1.229;  -1.706;;;;;;;;;;;;;;;;;;
2006-11-09T00:29:30.985Z;0;2.7910e+00;0;     0.118;  6697.404;  16428.365; 0;  15001.199;  16428.365;  18719.121;  12021.717; 32;   4.676; 350.121; 124.027;  45.600; 135.849;  58.744;  13.094; -21.383; -21.816;   5.393;   4.685;   4.177;   1.230;  -1.705;;;;;;;;;;;;;;;;;;
2006-11-09T00:29:38.985Z;0;2.7690e+00;0;     0.130;  6697.404;  16376.170; 0;  14944.020;  16376.170;  18663.320;  11965.916; 32;   4.676; 350.180; 124.084;  45.659; 135.905;  58.802;  13.095; -21.364; -21.797;   5.392;   4.686;   4.177;   1.232;  -1.703;;;;;;;;;;;;;;;;;;
2006-11-09T00:29:46.985Z;0;2.8170e+00;0;     0.124;  6697.404;  16494.043; 0;  15073.097;  16494.043;  18789.299;  12091.896; 32;   4.676; 350.239; 124.142;  45.718; 135.962;  58.860;  13.096; -21.344; -21.777;   5.390;   4.686;   4.177;   1.233;  -1.702;;;;;;;;;;;;;;;;;;
2006-11-09T00:29:54.985Z;0;2.7730e+00;0;     0.137;  6697.404;  16384.295; 0;  14952.923;  16384.295;  18672.008;  11974.604; 32;   4.676; 350.298; 124.199;  45.777; 136.018;  58.917;  13.097; -21.325; -21.758;   5.389;   4.686;   4.178;   1.234;  -1.700;;;;;;;;;;;;;;;;;;
2006-11-09T00:30:02.985Z;0;2.7760e+00;0;     0.130;  6680.688;  16384.553; 0;  14960.681;  16384.553;  18669.396;  11988.709; 32;   4.676; 350.356; 124.257;  45.837; 136.075;  58.975;  13.098; -21.305; -21.738;   5.388;   4.686;   4.178;   1.236;  -1.699;;;;;;;;;;;;;;;;;;
2006-11-09T00:30:10.985Z;0;2.8150e+00;0;     0.125;  6680.688;  16481.486; 0;  15066.778;  16481.486;  18772.963;  12092.274; 32;   4.676; 350.415; 124.315;  45.896; 136.132;  59.034;  13.099; -21.286; -21.719;   5.386;   4.686;   4.178;   1.237;  -1.698;;;;;;;;;;;;;;;;;;
2006-11-09T00:30:18.985Z;0;2.8240e+00;0;     0.119;  6680.688;  16502.676; 0;  15089.954;  16502.676;  18795.590;  12114.901; 32;   4.677; 350.474; 124.372;  45.955; 136.189;  59.093;  13.100; -21.267; -21.700;   5.385;   4.686;   4.179;   1.238;  -1.696;;;;;;;;;;;;;;;;;;
2006-11-09T00:30:26.985Z;0;2.8350e+00;0;     0.113;  6680.688;  16531.312; 0;  15121.267;  16531.312;  18826.164;  12145.476; 32;   4.677; 350.532; 124.430;  46.014; 136.246;  59.152;  13.102; -21.247; -21.680;   5.384;   4.686;   4.179;   1.240;  -1.695;;;;;;;;;;;;;;;;;;
2006-11-09T00:30:34.985Z;0;2.8300e+00;0;     0.115;  6680.688;  16517.402; 0;  15106.058;  16517.402;  18811.312;  12130.625; 32;   4.677; 350.591; 124.487;  46.074; 136.303;  59.212;  13.103; -21.228; -21.661;   5.382;   4.686;   4.179;   1.241;  -1.693;;;;;;;;;;;;;;;;;;
2006-11-09T00:30:42.985Z;0;2.8440e+00;0;     0.117;  6680.688;  16553.186; 0;  15145.176;  16553.186;  18849.512;  12168.823; 32;   4.677; 350.650; 124.545;  46.133; 136.360;  59.271;  13.104; -21.208; -21.641;   5.381;   4.686;   4.179;   1.243;  -1.692;;;;;;;;;;;;;;;;;;
2006-11-09T00:30:50.985Z;0;2.8250e+00;0;     0.127;  6680.688;  16506.359; 0;  15093.982;  16506.359;  18799.523;  12118.835; 32;   4.677; 350.709; 124.603;  46.192; 136.417;  59.330;  13.105; -21.189; -21.622;   5.380;   4.686;   4.180;   1.244;  -1.690;;;;;;;;;;;;;;;;;;
2006-11-09T00:30:58.984Z;0;2.8310e+00;0;     0.118;  6680.688;  16521.137; 0;  15110.142;  16521.137;  18815.301;  12134.612; 32;   4.677; 350.767; 124.660;  46.251; 136.474;  59.389;  13.106; -21.169; -21.602;   5.378;   4.686;   4.180;   1.245;  -1.689;;;;;;;;;;;;;;;;;;
2006-11-09T00:31:06.984Z;0;2.8500e+00;0;     0.137;  6664.196;  16559.592; 0;  15159.438;  16559.592;  18853.420;  12189.225; 32;   4.677; 350.826; 124.718;  46.311; 136.531;  59.448;  13.107; -21.150; -21.583;   5.377;   4.686;   4.180;   1.247;  -1.687;;;;;;;;;;;;;;;;;;
2006-11-09T00:31:14.984Z;0;2.8500e+00;0;     0.143;  6664.196;  16560.555; 0;  15160.490;  16560.555;  18854.447;  12190.252; 32;   4.677; 350.885; 124.776;  46.370; 136.588;  59.507;  13.108; -21.130; -21.563;   5.376;   4.686;   4.180;   1.248;  -1.686;;;;;;;;;;;;;;;;;;
2006-11-09T00:31:22.984Z;0;2.8530e+00;0;     0.126;  6664.196;  16568.520; 0;  15169.190;  16568.520;  18862.945;  12198.749; 32;   4.677; 350.944; 124.833;  46.429; 136.645;  59.566;  13.109; -21.111; -21.544;   5.374;   4.686;   4.181;   1.250;  -1.684;;;;;;;;;;;;;;;;;;
2006-11-09T00:31:30.984Z;0;2.7880e+00;0;     0.131;  6664.196;  16408.527; 0;  14994.274;  16408.527;  18692.148;  12027.952; 32;   4.677; 351.002; 124.891;  46.488; 136.702;  59.626;  13.110; -21.091; -21.525;   5.373;   4.687;   4.181;   1.251;  -1.683;;;;;;;;;;;;;;;;;;
2006-11-09T00:31:38.984Z;0;2.8410e+00;0;     0.113;  6664.196;  16538.477; 0;  15136.370;  16538.477;  18830.891;  12166.694; 32;   4.677; 351.061; 124.949;  46.548; 136.759;  59.685;  13.111; -21.072; -21.505;   5.372;   4.687;   4.181;   1.252;  -1.682;;;;;;;;;;;;;;;;;;
2006-11-09T00:31:46.984Z;0;2.7990e+00;0;     0.118;  6664.196;  16436.525; 0;  15024.908;  16436.525;  18722.053;  12057.857; 32;   4.678; 351.120; 125.006;  46.607; 136.816;  59.744;  13.112; -21.052; -21.486;   5.370;   4.687;   4.182;   1.254;  -1.680;;;;;;;;;;;;;;;;;;
2006-11-09T00:31:54.984Z;0;2.8310e+00;0;     0.126;  6664.196;  16513.734; 0;  15109.332;  16513.734;  18804.486;  12140.290; 32;   4.678; 351.179; 125.064;  46.666; 136.873;  59.803;  13.114; -21.033; -21.466;   5.369;   4.687;   4.182;   1.255;  -1.679;;;;;;;;;;;;;;;;;;
2006-11-09T00:32:02.984Z;0;2.8290e+00;0;     0.121;  6647.452;  16502.957; 0;  15104.932;  16502.957;  18790.016;  12142.564; 32;   4.678; 351.238; 125.121;  46.726; 136.930;  59.863;  13.115; -21.013; -21.447;   5.368;   4.687;   4.182;   1.256;  -1.677;;;;;;;;;;;;;;;;;;
2006-11-09T00:32:10.984Z;0;2.9760e+00;0;     0.244;  6647.452;  16857.283; 0;  15491.268;  16857.283;  19167.543;  12520.091; 32;   4.678; 351.296; 125.179;  46.785; 136.987;  59.922;  13.116; -20.994; -21.427;   5.367;   4.687;   4.182;   1.258;  -1.676;;;;;;;;;;;;;;;;;;
2006-11-09T00:32:18.984Z;0;2.8930e+00;0;     0.220;  6647.452;  16656.693; 0;  15272.747;  16656.693;  18953.953;  12306.500; 32;   4.678; 351.355; 125.237;  46.844; 137.044;  59.982;  13.117; -20.974; -21.408;   5.365;   4.687;   4.183;   1.259;  -1.674;;;;;;;;;;;;;;;;;;
2006-11-09T00:32:26.984Z;0;3.0390e+00;0;     0.203;  6647.452;  17006.654; 0;  15653.680;  17006.654;  19326.377;  12678.925; 32;   4.678; 351.414; 125.294;  46.904; 137.101;  60.041;  13.118; -20.955; -21.388;   5.364;   4.687;   4.183;   1.261;  -1.673;;;;;;;;;;;;;;;;;;
2006-11-09T00:32:50.984Z;0;2.8370e+00;0;     0.131;  6647.452;  16520.674; 0;  15124.287;  16520.674;  18808.918;  12161.467; 32;   4.678; 351.590; 125.468;  47.082; 137.272;  60.219;  13.121; -20.896; -21.330;   5.360;   4.687;   4.184;   1.265;  -1.668;;;;;;;;;;;;;;;;;;
2006-11-09T00:32:58.984Z;0;2.8020e+00;0;     0.139;  6647.452;  16435.969; 0;  15031.715;  16435.969;  18718.518;  12071.065; 32;   4.678; 351.649; 125.525;  47.141; 137.329;  60.279;  13.122; -20.877; -21.311;   5.359;   4.687;   4.184;   1.266;  -1.667;;;;;;;;;;;;;;;;;;
2006-11-09T00:33:06.984Z;0;2.7330e+00;0;     0.154;  6630.708;  16259.556; 0;  14846.105;  16259.556;  18527.141;  11896.432; 32;   4.678; 351.708; 125.583;  47.200; 137.387;  60.338;  13.123; -20.857; -21.291;   5.358;   4.687;   4.184;   1.267;  -1.666;;;;;;;;;;;;;;;;;;
2006-11-09T00:33:14.984Z;0;2.6950e+00;0;     0.151;  6630.708;  16163.792; 0;  14741.163;  16163.792;  18424.736;  11794.029; 32;   4.678; 351.767; 125.641;  47.260; 137.444;  60.398;  13.124; -20.838; -21.272;   5.356;   4.688;   4.184;   1.269;  -1.664;;;;;;;;;;;;;;;;;;
2006-11-09T00:33:22.984Z;0;2.8260e+00;0;     0.140;  6630.708;  16488.340; 0;  15096.326;  16488.340;  18771.441;  12140.733; 32;   4.679; 351.826; 125.698;  47.319; 137.501;  60.457;  13.125; -20.818; -21.252;   5.355;   4.688;   4.185;   1.270;  -1.663;;;;;;;;;;;;;;;;;;
2006-11-09T00:33:30.983Z;0;2.8760e+00;0;     0.121;  6630.708;  16609.258; 0;  15228.301;  16609.258;  18900.371;  12269.662; 32;   4.679; 351.884; 125.756;  47.378; 137.558;  60.517;  13.127; -20.799; -21.233;   5.354;   4.688;   4.185;   1.272;  -1.661;;;;;;;;;;;;;;;;;;
2006-11-09T00:33:38.983Z;0;2.8380e+00;0;     0.123;  6630.708;  16516.615; 0;  15127.203;  16516.615;  18801.602;  12170.894; 32;   4.679; 351.943; 125.814;  47.438; 137.615;  60.576;  13.128; -20.779; -21.213;   5.352;   4.688;   4.185;   1.273;  -1.660;;;;;;;;;;;;;;;;;;
2006-11-09T00:33:46.983Z;0;2.8430e+00;0;     0.125;  6630.708;  16528.703; 0;  15140.400;  16528.703;  18814.492;  12183.785; 32;   4.679; 352.002; 125.871;  47.497; 137.672;  60.636;  13.129; -20.760; -21.194;   5.351;   4.688;   4.186;   1.274;  -1.658;;;;;;;;;;;;;;;;;;